Regional Weather Roundup
Issued by NWS

Home | Current Version | Previous Version | Text Only | Print | Product List | Glossary On
Versions: 1 2 3 4 5 6 7 8 9 10 11 12 13 14 15 16 17 18 19 20 21 22 23 24 25 26 27 28 29 30 31 32 33 34 35 36 37 38 39 40 41 42 43 44 45 46 47 48 49 50
000
ASCA42 TJSJ 252010
RWRPR
PUERTO RICO/U.S. VIRGIN ISLANDS HOURLY WEATHER ROUNDUP
NATIONAL WEATHER SERVICE SAN JUAN PR
400 PM AST WED MAY 25 2016

PRZ001-004-252100-
PUERTO RICO

CITY           SKY/WX    TMP DP  RH WIND       PRES   REMARKS
SAN JUAN LMM   MOSUNNY   86  73  66 NE20      30.00F HX  93
AGUADILLA      SUNNY     84  73  70 E15       30.01F HX  91
CEIBA          SUNNY     84  73  70 E9        30.03F HX  91
$$

PRZ006-007-252100-
U.S. VIRGIN ISLANDS

CITY           SKY/WX    TMP DP  RH WIND       PRES   REMARKS
CHARLOTTE AMA  MOSUNNY   86  73  66 SE16      30.01S HX  93
CHRISTIANSTED  MOSUNNY   86  72  62 E14       30.01F HX  92
$$

HOURLY WEATHER ROUNDUP FOR THE NEWS MEDIA

CITY           SKY/WX    TMP DP  RH WIND       PRES   REMARKS
ORLANDO        MOSUNNY   88  56  33 NE13G18   30.18F
NEW YORK       MOSUNNY   86  43  22 SW14G22   30.04F
NEWARK         MOSUNNY   90  39  16 SW15G24   30.03F
CHICAGO        PTSUNNY   83  60  45 S10       29.92F
HARTFORD       SUNNY     80  57  45 SW9       29.96F
BOSTON         MOSUNNY   75  58  55 E7        29.93F
DALLAS         CLOUDY    86  73  65 S15G22    29.95F HX  93
PHILADELPHIA   PTSUNNY   88  38  17 W14G22    30.09R
LOS ANGELES    PTSUNNY   64  52  64 W14G20    30.10F
WASHINGTON DC  FAIR      84  51  31 SW8       30.13F


USA.gov is the U.S. government's official web portal to all federal, state and local government web resources and services.